Location: Daytona Beach
(29.2106°N, 81.0231°W)
Time: 14:10:18
(UTC-04:00)

X-37B - Pass Details

Date: 21 June 2021
Orbit: 383 x 392 km, 45.0° (Epoch: 01 July)

Event Time Altitude Azimuth Distance (km) Brightness Sun altitude
Rises 21:20:47 0° 212° (SSW) 2,241 4.4 -11.0°
Reaches altitude 10° 21:22:58 10° 201° (SSW) 1,391 3.2 -11.4°
Maximum altitude 21:25:46 30° 137° (SE) 709 1.3 -11.8°
Enters shadow 21:28:24 11° 75° (ENE) 1,327 2.9 -12.3°
